Date,TemperatureHighF,TemperatureAvgF,TemperatureLowF,DewpointHighF,DewpointAvgF,DewpointLowF,HumidityHigh,HumidityAvg,HumidityLow,PressureMaxIn,PressureMinIn,WindSpeedMaxMPH,WindSpeedAvgMPH,GustSpeedMaxMPH,PrecipitationSumIn
2013-1-4,61,28,23,34,16,14,74,63,36,29.30,29.03,3,3,3,0.00
2013-1-5,44,30,20,28,20,11,85,66,42,29.09,28.88,3,3,3,0.00
2013-1-6,48,30,14,23,17,9,81,60,35,29.24,29.03,4,3,4,0.00
2013-1-7,50,35,24,25,21,17,85,57,38,29.03,28.82,4,4,4,0.00
2013-1-8,53,38,23,28,25,19,95,63,38,29.00,28.74,4,4,4,0.00
2013-1-9,34,34,34,26,26,26,71,71,71,29.33,29.00,4,4,4,0.00
2013-1-10,34,34,34,26,26,26,71,71,71,29.03,28.62,4,4,4,0.00
2013-1-11,34,34,34,26,26,26,71,71,71,28.65,28.35,4,4,4,0.00
2013-1-12,34,34,34,26,26,26,71,71,71,29.00,28.65,4,4,4,0.00
2013-1-13,34,34,34,26,26,26,71,71,71,29.21,28.97,4,4,4,0.00
2013-1-14,34,34,34,26,26,26,71,71,71,29.39,29.21,4,4,4,0.00
2013-1-15,34,34,34,26,26,26,71,71,71,29.24,28.94,4,4,4,0.00
2013-1-16,34,34,34,26,26,26,71,71,71,29.09,28.82,4,4,4,0.00
2013-1-17,34,34,34,26,26,26,71,71,71,29.39,29.09,4,4,4,0.00
2013-1-18,61,44,34,32,26,23,71,52,32,29.18,28.77,16,5,22,0.00
2013-1-19,62,44,26,28,24,10,70,47,27,29.15,28.74,14,5,22,0.00
2013-1-20,30,20,11,10,4,0,73,52,35,29.30,29.15,8,3,12,0.00
2013-1-21,15,13,10,6,-3,-8,70,50,38,29.30,29.21,9,4,11,0.00
2013-1-22,34,19,12,13,1,-8,65,45,37,29.27,29.09,5,2,9,0.00
2013-1-23,42,30,13,18,11,3,66,45,38,29.33,29.03,10,5,13,0.00
2013-1-24,27,22,5,9,3,-8,52,43,36,29.39,29.03,6,3,8,0.00
2013-1-25,57,34,16,25,13,2,54,42,28,29.12,28.97,12,2,15,0.00
2013-1-26,35,35,35,16,16,16,45,45,45,29.15,28.91,3,2,5,0.00
2013-1-27,35,35,35,16,16,16,45,45,45,28.91,28.56,2,2,2,0.00
2013-1-28,35,35,35,16,16,16,45,45,45,28.74,28.44,2,2,2,0.00
2013-1-29,35,35,35,16,16,16,45,45,45,28.59,28.44,2,2,2,0.00
2013-1-30,35,35,35,16,16,11,45,45,45,28.77,28.50,7,2,7,0.00
2013-1-31,61,9,-3,34,-9,-20,44,40,36,29.30,29.06,3,3,3,0.00